Home > Weather > Fresno > Past weeks

Flag for U.S.A. Weather for the Past 2 Weeks in Fresno, California, U.S.A.

Now
48 °F

More clouds than sun.


Feels Like: 47 °F
Forecast: 46 / 70 °F
Wind: 3 mph from Southeast

Location: Fresno Air Terminal

Current Time: Feb 12, 2016 at 9:16:40 AM

Latest Report: Feb 12, 2016 at 7:53 AM


Visibility: 7 mi

Pressure: 30.21 "Hg

Humidity: 86%

Dew point: 44 °F

Location of FresnoLocation

Historic Weather in Fresno — Graph

°F

Fresno Temperature Yesterday

Maximum temperature yesterday: 72 °F (at 2:53 PM)
Minimum temperature yesterday: 45 °F (at 6:53 AM)
Average temperature yesterday: 58 °F

High & Low Weather Summary for the Past Weeks

 TemperatureHumidityPressure
High76 °F (Feb 9, 2:53 PM)97% (Jan 29, 7:53 AM)30.48 "Hg (Jan 29, 7:53 AM)
Low33 °F (Feb 3, 5:53 AM)30% (Feb 9, 2:53 PM)29.68 "Hg (Jan 31, 1:53 PM)
Average51 °F75%30.22 "Hg
* Reported Jan 28 7:53 AM — Feb 12 7:53 AM, Fresno, Weather by CustomWeather, © 2016

Note: Actual official high and low records may vary slightly from our data, if they occured in-between our weather recording intervals... More about our weather records

Advertising

Fresno Weather History for the Previous 24 Hours

 ConditionsComfort  
Time TempWeatherWind HumidityBarometerVisibility
7:53 AM
Fri, Feb 12
48 °FMore clouds than sun.3 mph86%30.21 "Hg7 mi
6:53 AM47 °FBroken clouds.No wind86%30.20 "Hg9 mi
5:53 AM47 °FPassing clouds.No wind86%30.18 "Hg10 mi
4:53 AM48 °FPassing clouds.No wind86%30.18 "Hg9 mi
3:53 AM48 °FFog.5 mph89%30.18 "Hg5 mi
2:53 AM49 °FFog.No wind97%30.19 "Hg4 mi
1:53 AM49 °FFog.No wind90%30.18 "Hg5 mi
12:53 AM50 °FFog.No wind89%30.18 "Hg5 mi
11:53 PM
Thu, Feb 11
52 °FFog.No wind89%30.18 "Hg6 mi
10:53 PM53 °FFog.No wind86%30.17 "Hg4 mi
9:53 PM56 °FFog.No wind87%30.17 "Hg5 mi
8:53 PM57 °FPassing clouds.No wind81%30.16 "Hg6 mi
7:53 PM60 °FPassing clouds.5 mph72%30.15 "Hg6 mi
6:53 PM61 °FPassing clouds.3 mph72%30.14 "Hg6 mi
5:53 PM67 °FPassing clouds.No wind59%30.13 "Hg7 mi
4:53 PM69 °FPartly sunny.No wind57%30.12 "Hg6 mi
3:53 PM71 °FPartly sunny.7 mph53%30.11 "Hg5 mi
2:53 PM72 °FPartly sunny.5 mph49%30.12 "Hg4 mi
1:53 PM71 °FBroken clouds.5 mph51%30.13 "Hg4 mi
12:53 PM68 °FPartly sunny.3 mph59%30.14 "Hg5 mi
11:53 AM65 °FOvercast.3 mph66%30.16 "Hg5 mi
10:53 AM62 °FOvercast.3 mph73%30.18 "Hg4 mi
9:53 AM57 °FOvercast.5 mph81%30.19 "Hg4 mi
Weather by CustomWeather, © 2016

See weather overviewHow to use our weather pages